When you browse on this site, cookies collect data to enhance your experience and personalize the content and advertising you see.
Visit our Privacy Policy to learn more. By continuing to use the site, you agree to this use of cookies and data.
  • In Österreich
  • Länderverzeichnis
  • Für 7 Tage
  • Wassertemperatur
  • Satellitenkarten
  • Wetterkarte
  • News
  • Widgets
  • user-avatar
    Anmelden

    Stündliche Wetter Osaka

    Heute, 17 Juli, Mittwoch

    Zeit Temperatur Niederschläge Wind Luftdruck Luftfeuchtigkeit
    00:00 +27°C° 1.9 mm 2 m/S 759 mmHg 78%
    01:00 +27°C° 0.8 mm 1 m/S 758 mmHg 78%
    02:00 +27°C° 0.8 mm 1 m/S 758 mmHg 79%
    03:00 +27°C° 0.8 mm 1 m/S 758 mmHg 79%
    04:00 +27°C° 0.1 mm 1 m/S 758 mmHg 79%
    05:00 +27°C° 0.1 mm 1 m/S 759 mmHg 79%
    06:00 +27°C° 0.1 mm 1 m/S 759 mmHg 79%
    07:00 +28°C° 0 mm 1 m/S 759 mmHg 74%
    08:00 +29°C° 0 mm 1 m/S 759 mmHg 69%
    09:00 +28°C° 0 mm 0 m/S 759 mmHg 64%
    10:00 +32°C° 0.1 mm 1 m/S 759 mmHg 60%
    11:00 +33°C° 0.1 mm 1 m/S 759 mmHg 56%
    12:00 +35°C° 0.1 mm 2 m/S 759 mmHg 52%
    13:00 +35°C° 0.2 mm 2 m/S 758 mmHg 53%
    14:00 +34°C° 0.2 mm 3 m/S 758 mmHg 53%
    15:00 +34°C° 0.2 mm 3 m/S 757 mmHg 53%
    16:00 +34°C° 0.1 mm 3 m/S 758 mmHg 57%
    17:00 +33°C° 0.1 mm 3 m/S 758 mmHg 61%
    18:00 +31°C° 0.1 mm 3 m/S 758 mmHg 64%
    19:00 +30°C° 0 mm 3 m/S 758 mmHg 67%
    20:00 +30°C° 0 mm 2 m/S 758 mmHg 69%
    21:00 +29°C° 0 mm 2 m/S 759 mmHg 71%
    22:00 +29°C° 0 mm 2 m/S 759 mmHg 72%
    23:00 +29°C° 0 mm 2 m/S 759 mmHg 72%

    Morgen, 18 Juli, Donnerstag

    Zeit Temperatur Niederschläge Wind Luftdruck Luftfeuchtigkeit
    00:00 +28°C° 0 mm 2 m/S 759 mmHg 72%
    01:00 +28°C° 0 mm 1 m/S 759 mmHg 73%
    02:00 +28°C° 0 mm 1 m/S 759 mmHg 73%
    03:00 +28°C° 0 mm 1 m/S 758 mmHg 74%
    04:00 +28°C° 0 mm 1 m/S 758 mmHg 74%
    05:00 +28°C° 0 mm 1 m/S 759 mmHg 74%
    06:00 +28°C° 0 mm 1 m/S 759 mmHg 73%
    07:00 +29°C° 0 mm 1 m/S 759 mmHg 69%
    08:00 +30°C° 0 mm 1 m/S 759 mmHg 65%
    09:00 +31°C° 0 mm 1 m/S 759 mmHg 60%
    10:00 +33°C° 0.3 mm 1 m/S 759 mmHg 56%
    11:00 +34°C° 0.3 mm 1 m/S 758 mmHg 52%
    12:00 +36°C° 0.3 mm 2 m/S 758 mmHg 48%
    13:00 +36°C° 0.8 mm 2 m/S 758 mmHg 50%
    14:00 +36°C° 0.8 mm 2 m/S 757 mmHg 52%
    15:00 +35°C° 0.8 mm 3 m/S 757 mmHg 54%
    16:00 +35°C° 0.3 mm 3 m/S 757 mmHg 55%
    17:00 +34°C° 0.3 mm 3 m/S 757 mmHg 57%
    18:00 +34°C° 0.3 mm 3 m/S 757 mmHg 59%
    19:00 +33°C° 0.5 mm 3 m/S 757 mmHg 60%
    20:00 +33°C° 0.5 mm 3 m/S 758 mmHg 62%
    21:00 +31°C° 0.5 mm 3 m/S 758 mmHg 64%
    22:00 +31°C° 0.1 mm 3 m/S 758 mmHg 65%
    23:00 +30°C° 0.1 mm 3 m/S 758 mmHg 66%

    übermorgen, 19 Juli, Freitag

    Zeit Temperatur Niederschläge Wind Luftdruck Luftfeuchtigkeit
    00:00 +30°C° 0.1 mm 3 m/S 758 mmHg 67%
    01:00 +30°C° 0 mm 2 m/S 757 mmHg 68%
    02:00 +30°C° 0 mm 2 m/S 757 mmHg 68%
    03:00 +30°C° 0 mm 2 m/S 757 mmHg 69%
    04:00 +30°C° 0 mm 2 m/S 757 mmHg 69%
    05:00 +29°C° 0 mm 2 m/S 757 mmHg 70%
    06:00 +29°C° 0 mm 2 m/S 757 mmHg 71%
    07:00 +30°C° 0 mm 2 m/S 757 mmHg 66%
    08:00 +31°C° 0 mm 2 m/S 757 mmHg 62%
    09:00 +32°C° 0 mm 2 m/S 757 mmHg 58%
    10:00 +34°C° 0.1 mm 2 m/S 756 mmHg 55%
    11:00 +35°C° 0.1 mm 2 m/S 756 mmHg 52%
    12:00 +36°C° 0.1 mm 2 m/S 756 mmHg 49%
    13:00 +35°C° 0.5 mm 2 m/S 756 mmHg 53%
    14:00 +34°C° 0.5 mm 3 m/S 756 mmHg 57%
    15:00 +33°C° 0.5 mm 3 m/S 755 mmHg 61%
    16:00 +33°C° 0.3 mm 3 m/S 756 mmHg 60%
    17:00 +32°C° 0.3 mm 2 m/S 756 mmHg 60%
    18:00 +31°C° 0.3 mm 2 m/S 756 mmHg 59%
    19:00 +31°C° 0 mm 2 m/S 756 mmHg 61%
    20:00 +31°C° 0 mm 2 m/S 756 mmHg 62%
    21:00 +30°C° 0 mm 3 m/S 756 mmHg 64%
    22:00 +30°C° 0 mm 3 m/S 756 mmHg 65%
    23:00 +30°C° 0 mm 3 m/S 755 mmHg 66%

    20 Juli, Samstag

    Zeit Temperatur Niederschläge Wind Luftdruck Luftfeuchtigkeit
    00:00 +30°C° 0 mm 3 m/S 755 mmHg 67%
    01:00 +30°C° 0 mm 4 m/S 754 mmHg 66%
    02:00 +30°C° 0 mm 4 m/S 753 mmHg 66%
    03:00 +30°C° 0 mm 5 m/S 753 mmHg 65%
    04:00 +30°C° 0.2 mm 5 m/S 753 mmHg 65%
    05:00 +30°C° 0.2 mm 5 m/S 753 mmHg 66%
    06:00 +30°C° 0.2 mm 5 m/S 753 mmHg 67%
    07:00 +30°C° 0.7 mm 5 m/S 753 mmHg 68%
    08:00 +30°C° 0.7 mm 5 m/S 753 mmHg 69%
    09:00 +30°C° 0.7 mm 6 m/S 753 mmHg 71%
    10:00 +32°C° 1.1 mm 6 m/S 753 mmHg 70%
    11:00 +32°C° 1.1 mm 6 m/S 753 mmHg 69%
    12:00 +32°C° 1.1 mm 6 m/S 753 mmHg 69%
    13:00 +33°C° 0.9 mm 7 m/S 753 mmHg 67%
    14:00 +33°C° 0.9 mm 7 m/S 753 mmHg 65%
    15:00 +34°C° 0.9 mm 8 m/S 753 mmHg 63%
    16:00 +33°C° 0.6 mm 7 m/S 753 mmHg 63%
    17:00 +33°C° 0.6 mm 7 m/S 753 mmHg 63%
    18:00 +33°C° 0.6 mm 7 m/S 753 mmHg 63%
    19:00 +32°C° 0.5 mm 6 m/S 754 mmHg 66%
    20:00 +32°C° 0.5 mm 6 m/S 754 mmHg 68%
    21:00 +30°C° 0.5 mm 5 m/S 755 mmHg 70%
    22:00 +30°C° 0.7 mm 5 m/S 755 mmHg 71%
    23:00 +30°C° 0.7 mm 5 m/S 755 mmHg 72%

    21 Juli, Sonntag

    Zeit Temperatur Niederschläge Wind Luftdruck Luftfeuchtigkeit
    00:00 +30°C° 0.7 mm 5 m/S 755 mmHg 72%
    01:00 +30°C° 0.6 mm 5 m/S 755 mmHg 73%
    02:00 +30°C° 0.6 mm 5 m/S 755 mmHg 73%
    03:00 +29°C° 0.6 mm 4 m/S 755 mmHg 73%
    04:00 +29°C° 0.8 mm 4 m/S 755 mmHg 73%
    05:00 +29°C° 0.8 mm 4 m/S 755 mmHg 74%
    06:00 +29°C° 0.8 mm 4 m/S 756 mmHg 74%
    07:00 +30°C° 0.4 mm 4 m/S 756 mmHg 72%
    08:00 +30°C° 0.4 mm 4 m/S 756 mmHg 71%
    09:00 +30°C° 0.4 mm 4 m/S 756 mmHg 69%
    10:00 +30°C° 1.2 mm 4 m/S 756 mmHg 72%
    11:00 +30°C° 1.2 mm 4 m/S 756 mmHg 74%
    12:00 +29°C° 1.2 mm 3 m/S 756 mmHg 76%
    13:00 +29°C° 2.2 mm 3 m/S 756 mmHg 78%
    14:00 +29°C° 2.2 mm 3 m/S 756 mmHg 80%
    15:00 +28°C° 2.2 mm 2 m/S 756 mmHg 82%
    16:00 +28°C° 1.4 mm 2 m/S 756 mmHg 82%
    17:00 +28°C° 1.4 mm 2 m/S 756 mmHg 82%
    18:00 +28°C° 1.4 mm 2 m/S 756 mmHg 82%
    19:00 +28°C° 0.2 mm 2 m/S 756 mmHg 81%
    20:00 +28°C° 0.2 mm 2 m/S 757 mmHg 80%
    21:00 +28°C° 0.2 mm 2 m/S 757 mmHg 79%
    22:00 +28°C° 0.1 mm 2 m/S 757 mmHg 79%
    23:00 +28°C° 0.1 mm 2 m/S 757 mmHg 79%

    22 Juli, Montag

    Zeit Temperatur Niederschläge Wind Luftdruck Luftfeuchtigkeit
    00:00 +28°C° 0.1 mm 2 m/S 756 mmHg 80%
    01:00 +28°C° 0.2 mm 2 m/S 756 mmHg 80%
    02:00 +28°C° 0.2 mm 2 m/S 756 mmHg 80%
    03:00 +28°C° 0.2 mm 2 m/S 756 mmHg 80%
    04:00 +28°C° 0.2 mm 2 m/S 756 mmHg 81%
    05:00 +28°C° 0.2 mm 2 m/S 756 mmHg 82%
    06:00 +27°C° 0.2 mm 1 m/S 756 mmHg 83%
    07:00 +27°C° 1.8 mm 2 m/S 757 mmHg 84%
    08:00 +27°C° 1.8 mm 2 m/S 757 mmHg 86%
    09:00 +27°C° 1.8 mm 2 m/S 757 mmHg 87%
    10:00 +27°C° 1.3 mm 2 m/S 757 mmHg 86%
    11:00 +28°C° 1.3 mm 1 m/S 757 mmHg 84%
    12:00 +28°C° 1.3 mm 1 m/S 757 mmHg 82%
    13:00 +28°C° 0.5 mm 1 m/S 757 mmHg 82%
    14:00 +28°C° 0.5 mm 2 m/S 757 mmHg 81%
    15:00 +28°C° 0.5 mm 2 m/S 757 mmHg 80%
    16:00 +28°C° 0.1 mm 2 m/S 757 mmHg 80%
    17:00 +28°C° 0.1 mm 1 m/S 756 mmHg 79%
    18:00 +28°C° 0.1 mm 1 m/S 756 mmHg 79%
    19:00 +28°C° 0 mm 1 m/S 757 mmHg 80%
    20:00 +28°C° 0 mm 1 m/S 757 mmHg 81%
    21:00 +28°C° 0 mm 1 m/S 757 mmHg 81%
    22:00 +28°C° 0 mm 1 m/S 757 mmHg 82%
    23:00 +28°C° 0 mm 1 m/S 757 mmHg 82%
    Mehr zeigen